OneWeb SL0024

operational
NORAD ID: 45137 Int'l Des: 2020-008 Owner: ONEWEB Country: UK Constellation: oneweb
LEOCIRCULARPOLARONEWEB_TYPE

关于 OneWeb SL0024

正在加载描述...

实时位置

正在加载3D地球...

即将过境

高度历史

Altitude vs Time

uPlot chart will show altitude changes over time

两行轨道根数

1 45137U 20008G 25257.54669655 .00000171 00000-0 45333-3 0 9997
2 45137 87.8752 91.1956 0001598 87.1056 273.0254 13.10369252272141
Epoch: Sep 14, 2025 • Age: 20 hours

当前状态

高度 1247.4 km
速度 7.23 km/s
星下点 -64.18°S, 42.21°W
发射日期 Feb 6, 2020
运行时间 5.6 years
类型 internet

技术详情

分类 Payload
质量 148.00 kg
干质量 140.00 kg
总质量 148.00 kg
长度 1.30 m
直径 1.00 m
跨度 5.00 m
形状 Trapezoid+2 pan
制造商 ONEWUS
平台类型 ARROW
阶段状态 In Orbit
所有者/国家 ONEWEB/UK

大型星座

Loading constellations...